Orbital Elements at Epoch 2459200.5 (2020-Dec-17.0) TDB
Reference: JPL 35 (heliocentric ecliptic J2000)
Element | Value | Uncertainty (1-sigma) | Units |
e | .1526519046925438 | 4.0353e-08 | |
a | 2.622295303418041 | 1.2945e-08 | au |
q | 2.221996930684965 | 1.0665e-07 | au |
i | 12.65231293528233 | 5.0239e-06 | deg |
node | 316.6014871148913 | 1.538e-05 | deg |
peri | 327.5280742813463 | 2.2127e-05 | deg |
M | 294.1256891407326 | 1.8735e-05 | deg |
tp | 2459484.314386956818 (2021-Sep-26.81438696) | 8.1482e-05 | TDB |
period | 1551.032230496273 4.25 | 1.1485e-05 3.144e-08 | d yr |
n | .2321034939969064 | 1.7186e-09 | deg/d |
Q | 3.022593676151117 | 1.4921e-08 | au |
|
| | Orbit Determination Parameters
Additional Information
|